Content
SEND FEEDBACK

Daily
Averages
Monthly
Summary
United States of America

CAMP QUEZON, GUAM


Home > North America > United States > Guam
Elevation: 269 feet     Latitude: 13 28N     Longitude: 144 48E

WEATHER
 
SELECT A DAY
Number of Records: 215,513;   Date Range: 1/1/95 - 12/17/14
 
SHARE

PRINT THIS DATA

[ ← Previous Day ]
WEATHER ALMANAC - MARCH 24, 2014
[ Next Day → ]
[ °C ]   °F
Weather ElementAverageHighLow
Temperature82.8 °F87.1 °F (11:54 am)78.1 °F (2:54 am)
Dewpoint72.3 °F73.4 °F (9:35 am)71.1 °F (10:54 am)
Humidity70.9 %84 % (2:54 am)59 % (2:54 pm)
Barometer29.90 in29.96 in (9:16 am)29.84 in (3:54 pm)
Wind Speed14.1 mph19.6 mph (11:54 am)
Wind Gust26.5 mph (10:54 am)
Weather ElementAverage
Visibility10 mi
Wind DirectionENE (67.9 °)

Weather ElementTotal
Precipitation---
Cooling Degree Days17.6 (Base 65)
Growing Degree Days32.6 (Base 50)
Averaged from 29 records on March 24, 2014
WEATHER CONDITIONS BREAKOUT
WIND DIRECTION BREAKOUT
WEATHER BY HOUR - MARCH 24, 2014
[ °C ]   °F
Local TimeTemperatureDewpointHumidityBarometerVisibilityWind DirectionWind SpeedGust SpeedPrecipitationEventsConditions
1:54 AM79.0 °F73.0 °F82 %29.90 in10.0 miENE (60°)10.4 mphPartly Cloudy
2:54 AM78.1 °F73.0 °F84 %29.88 in10.0 miENE (70°)10.4 mphClear
3:54 AM78.1 °F73.0 °F84 %29.88 in10.0 miENE (60°)8.1 mphClear
4:54 AM78.1 °F73.0 °F84 %29.89 in10.0 miENE (60°)8.1 mphClear
5:54 AM78.1 °F73.0 °F84 %29.91 in10.0 miENE (60°)9.2 mphScattered Clouds
6:54 AM79.0 °F73.0 °F82 %29.92 in10.0 miENE (60°)10.4 mphClear
7:54 AM81.0 °F73.0 °F77 %29.93 in10.0 miENE (60°)11.5 mphClear
8:54 AM82.9 °F73.0 °F72 %29.94 in10.0 miENE (60°)17.3 mphScattered Clouds
9:16 AM84.2 °F71.6 °F66 %29.96 in10.0 miENE (70°)17.3 mph23.0 mphMostly Cloudy
9:35 AM84.2 °F73.4 °F70 %29.95 in10.0 miENE (60°)17.3 mphMostly Cloudy
9:54 AM86.0 °F73.0 °F65 %29.93 in10.0 miEast (80°)16.1 mph23.0 mphMostly Cloudy
10:01 AM86.0 °F71.6 °F62 %29.95 in10.0 miENE (70°)17.3 mph24.2 mphMostly Cloudy
10:13 AM86.0 °F73.4 °F66 %29.94 in10.0 miENE (70°)15.0 mph24.2 mphMostly Cloudy
10:54 AM86.0 °F71.1 °F61 %29.91 in10.0 miENE (70°)18.4 mph26.5 mphClear
11:54 AM87.1 °F73.0 °F63 %29.89 in10.0 miEast (80°)19.6 mph25.3 mphPartly Cloudy
12:41 PM84.2 °F73.4 °F70 %29.90 in10.0 miENE (70°)18.4 mph24.2 mphMostly Cloudy
12:51 PM86.0 °F71.6 °F62 %29.89 in10.0 miEast (90°)19.6 mph25.3 mphMostly Cloudy
12:54 PM86.0 °F72.0 °F63 %29.87 in10.0 miEast (80°)19.6 mph25.3 mphMostly Cloudy
1:54 PM86.0 °F72.0 °F63 %29.85 in10.0 miEast (80°)13.8 mph26.5 mphScattered Clouds
2:54 PM87.1 °F71.1 °F59 %29.85 in10.0 miENE (60°)17.3 mphMostly Cloudy
3:54 PM86.0 °F71.1 °F61 %29.84 in10.0 miENE (60°)17.3 mph24.2 mphPartly Cloudy
4:54 PM84.9 °F73.0 °F67 %29.85 in10.0 miEast (80°)19.6 mph23.0 mphScattered Clouds
5:54 PM82.9 °F72.0 °F69 %29.86 in10.0 miEast (80°)12.7 mphPartly Cloudy
6:54 PM81.0 °F72.0 °F74 %29.88 in10.0 miENE (60°)10.4 mphPartly Cloudy
7:54 PM81.0 °F71.1 °F72 %29.90 in10.0 miENE (70°)11.5 mphPartly Cloudy
8:54 PM81.0 °F71.1 °F72 %29.92 in10.0 miENE (60°)11.5 mphPartly Cloudy
9:54 PM81.0 °F72.0 °F74 %29.92 in10.0 miENE (60°)10.4 mphPartly Cloudy
10:54 PM80.1 °F71.1 °F74 %29.92 in10.0 miENE (60°)9.2 mphPartly Cloudy
11:54 PM80.1 °F71.1 °F74 %29.92 in10.0 miENE (70°)10.4 mphPartly Cloudy
Hourly data recorded from PGUM, located miles away from Camp Quezon, Guam







STORIES FROM OUR PARTNERS